QPF
0.18 0.10 0.11 0.03 0.01 0.01 0.09 0.16 0.08 0.01 0.00 0.00 0.00 0.00 0.00 0.00 0.00 0.00 0.00 0.00 0.00 0.00 0.00 0.00 0.00 0.00 0.00 0.00 0.00 0.00 0.00 0.00
0.20 0.14 0.13 0.06 0.02 0.01 0.03 0.16 0.12 0.02 0.00 0.00 0.00 0.00 0.00 0.00 0.00 0.00 0.00 0.00 0.00 0.00 0.00 0.00 0.00 0.00 0.00 0.00 0.00 0.00 0.00 0.00
0.13 0.08 0.13 0.03 0.01 0.00 0.02 0.11 0.19 0.06 0.00 0.00 0.00 0.00 0.00 0.00 0.00 0.00 0.00 0.00 0.00 0.00 0.00 0.00 0.00 0.00 0.00 0.00 0.00 0.00 0.00 0.00
0.15 0.17 0.08 0.04 0.01 0.00 0.03 0.14 0.23 0.13 0.03 0.00 0.00 0.00 0.00 0.00 0.00 0.00 0.00 0.00 0.00 0.00 0.00 0.00 0.00 0.00 0.00 0.00 0.00 0.00 0.00 0.00
0.01 0.02 0.02 0.01 0.01 0.01 0.02 0.11 0.19 0.19 0.08 0.00 0.00 0.00 0.00 0.00 0.00 0.00 0.00 0.00 0.00 0.00 0.00 0.00 0.00 0.00 0.00 0.00 0.00 0.00 0.00 0.00
0.00 0.00 0.00 0.00 0.00 0.00 0.00 0.01 0.06 0.07 0.06 0.00 0.00 0.00 0.00 0.00 0.00 0.00 0.00 0.00 0.00 0.00 0.00 0.00 0.00 0.00 0.00 0.00 0.00 0.00 0.00 0.00
0.00 0.01 0.00 0.00 0.00 0.00 0.00 0.00 0.01 0.04 0.02 0.00 0.00 0.00 0.00 0.00 0.00 0.00 0.00 0.00 0.00 0.00 0.00 0.00 0.00 0.00 0.00 0.00 0.00 0.00 0.00 0.00
0.01 0.00 0.00 0.00 0.00 0.00 0.00 0.00 0.01 0.02 0.01 0.00 0.00 0.00 0.00 0.00 0.00 0.00 0.00 0.00 0.00 0.00 0.00 0.00 0.00 0.00 0.00 0.00 0.00 0.00 0.00 0.00
0.01 0.01 0.00 0.00 0.00 0.01 0.00 0.00 0.00 0.01 0.01 0.00 0.00 0.00 0.00 0.00 0.00 0.00 0.00 0.00 0.00 0.00 0.00 0.00 0.00 0.00 0.00 0.00 0.00 0.00 0.00 0.00
0.01 0.00 0.00 0.00 0.00 0.00 0.00 0.01 0.00 0.00 0.01 0.00 0.00 0.00 0.00 0.00 0.00 0.00 0.00 0.00 0.00 0.00 0.00 0.00 0.00 0.00 0.00 0.00 0.00 0.00 0.00 0.00
0.00 0.01 0.00 0.00 0.00 0.01 0.00 0.00 0.00 0.00 0.00 0.00 0.00 0.00 0.00 0.00 0.00 0.00 0.00 0.00 0.00 0.00 0.00 0.00 0.00 0.00 0.00 0.00 0.00 0.00 0.00 0.00
0.00 0.00 0.00 0.00 0.00 0.01 0.00 0.00 0.00 0.00 0.00 0.00 0.00 0.00 0.01 0.00 0.00 0.01 0.00 0.00 0.00 0.00 0.00 0.00 0.00 0.00 0.00 0.00 0.00 0.00 0.00 0.00
0.00 0.00 0.00 0.00 0.00 0.00 0.01 0.01 0.00 0.00 0.00 0.00 0.00 0.00 0.02 0.02 0.01 0.01 0.01 0.00 0.00 0.00 0.00 0.00 0.00 0.00 0.00 0.00 0.00 0.00 0.00 0.00
0.00 0.00 0.00 0.00 0.00 0.00 0.00 0.00 0.00 0.00 0.00 0.01 0.01 0.00 0.01 0.03 0.03 0.01 0.01 0.01 0.00 0.00 0.00 0.00 0.00 0.00 0.00 0.00 0.00 0.00 0.00 0.00
0.00 0.00 0.00 0.00 0.00 0.00 0.00 0.00 0.00 0.00 0.00 0.00 0.00 0.00 0.00 0.00 0.01 0.00 0.00 0.00 0.00 0.00 0.00 0.00 0.00 0.00 0.00 0.00 0.00 0.00 0.00 0.00
0.00 0.00 0.00 0.00 0.00 0.00 0.00 0.00 0.00 0.00 0.00 0.00 0.00 0.00 0.00 0.00 0.00 0.00 0.00 0.00 0.00 0.00 0.00 0.00 0.00 0.00 0.00 0.00 0.00 0.00 0.00 0.00
0.00 0.00 0.00 0.00 0.00 0.00 0.00 0.00 0.00 0.00 0.00 0.00 0.00 0.00 0.00 0.00 0.00 0.00 0.00 0.00 0.01 0.01 0.01 0.02 0.02 0.02 0.02 0.01 0.00 0.00 0.00 0.00
0.00 0.00 0.00 0.00 0.00 0.00 0.00 0.00 0.00 0.00 0.00 0.00 0.00 0.00 0.00 0.00 0.00 0.00 0.00 0.00 0.01 0.02 0.04 0.05 0.04 0.03 0.03 0.02 0.01 0.01 0.00 0.00
0.00 0.00 0.00 0.00 0.00 0.00 0.00 0.00 0.00 0.00 0.00 0.00 0.00 0.00 0.00 0.00 0.00 0.00 0.00 0.00 0.03 0.04 0.05 0.05 0.06 0.05 0.04 0.03 0.02 0.01 0.00 0.00
0.00 0.00 0.00 0.00 0.00 0.00 0.00 0.00 0.00 0.00 0.00 0.00 0.00 0.00 0.00 0.00 0.00 0.00 0.00 0.00 0.01 0.02 0.03 0.05 0.06 0.05 0.04 0.02 0.01 0.01 0.01 0.00
MSLP
1011.62 1012.28 1012.60 1013.14 1013.62 1014.04 1014.37 1014.48 1015.24 1015.44 1016.54 1017.44 1017.89 1018.57 1018.71 1018.98 1019.09 1019.12 1019.65 1019.87 1019.95 1020.39 1020.67 1021.08 1021.62 1022.14 1022.53 1022.95 1023.23 1023.51 1023.79 1023.89
1011.86 1012.21 1012.72 1013.06 1013.66 1013.72 1014.44 1014.70 1015.13 1014.99 1016.59 1017.62 1018.40 1018.83 1019.18 1019.39 1019.46 1019.66 1019.87 1020.07 1020.31 1020.65 1021.19 1021.59 1021.99 1022.49 1022.98 1023.33 1023.61 1023.90 1024.14 1024.38
1011.75 1012.11 1012.81 1012.93 1013.70 1014.41 1015.00 1015.05 1015.37 1015.49 1016.85 1018.09 1018.54 1019.14 1019.47 1019.96 1019.78 1019.90 1020.08 1020.51 1020.49 1021.01 1021.44 1021.98 1022.58 1022.98 1023.21 1023.57 1024.04 1024.37 1024.65 1024.78
1011.90 1012.06 1012.85 1013.64 1014.20 1014.49 1014.98 1015.23 1015.28 1016.09 1017.13 1018.19 1018.73 1019.22 1019.58 1020.04 1020.14 1020.38 1020.65 1020.78 1020.99 1021.03 1021.70 1022.14 1022.80 1023.24 1023.44 1023.73 1024.16 1024.55 1024.86 1025.08
1012.50 1012.89 1013.26 1013.62 1013.76 1014.55 1015.44 1015.80 1015.90 1016.36 1017.38 1018.27 1018.95 1019.35 1019.73 1020.18 1020.44 1020.97 1021.21 1021.21 1021.35 1021.72 1022.15 1022.50 1022.92 1023.42 1023.93 1024.31 1024.54 1024.81 1025.12 1025.28
1013.14 1013.30 1013.58 1013.79 1014.07 1014.87 1015.09 1016.03 1016.61 1017.21 1017.86 1018.26 1019.19 1019.56 1019.95 1020.38 1020.81 1021.28 1021.49 1021.82 1021.94 1022.11 1022.55 1022.89 1023.50 1023.83 1024.02 1024.48 1024.83 1025.15 1025.18 1025.24
1013.51 1013.73 1014.33 1014.55 1014.67 1015.35 1016.04 1016.75 1017.31 1017.48 1017.86 1018.28 1019.34 1019.80 1020.04 1020.30 1020.88 1021.19 1021.62 1021.91 1021.95 1022.45 1022.96 1023.28 1023.94 1024.28 1024.42 1024.68 1025.07 1025.18 1025.40 1025.46
1013.64 1014.10 1014.48 1015.42 1015.63 1015.94 1016.41 1016.94 1017.44 1017.46 1018.27 1018.68 1019.32 1019.79 1020.06 1020.47 1021.06 1021.31 1021.71 1021.68 1021.91 1022.26 1022.80 1023.47 1024.12 1024.35 1024.67 1024.96 1025.08 1025.35 1025.54 1025.55
1013.90 1014.23 1014.38 1015.20 1015.81 1016.06 1016.76 1017.01 1017.63 1018.13 1018.69 1018.92 1019.30 1019.61 1020.02 1020.46 1020.98 1021.34 1021.67 1021.63 1021.95 1022.42 1023.13 1023.77 1024.26 1024.51 1024.81 1025.15 1025.42 1025.49 1025.66 1025.65
1013.90 1014.13 1014.41 1015.09 1015.83 1016.02 1016.77 1017.32 1017.88 1018.17 1018.54 1019.01 1019.17 1019.55 1020.11 1020.62 1021.00 1021.26 1021.66 1021.85 1022.06 1022.28 1023.30 1023.97 1024.35 1024.60 1025.00 1025.35 1025.77 1025.73 1025.81 1025.96
1013.83 1014.19 1014.63 1015.01 1015.80 1016.20 1016.82 1017.53 1017.72 1017.93 1018.38 1018.92 1019.28 1019.69 1020.20 1020.47 1020.85 1021.26 1021.37 1021.91 1022.26 1022.71 1023.50 1023.95 1024.56 1024.84 1024.97 1025.36 1025.51 1025.77 1025.75 1025.85
1014.01 1014.38 1014.71 1015.34 1016.07 1016.57 1016.88 1017.36 1017.55 1017.22 1018.25 1018.83 1019.44 1019.80 1020.15 1020.38 1020.77 1021.19 1021.18 1022.07 1022.57 1022.87 1023.28 1023.99 1024.32 1024.62 1025.16 1025.51 1025.77 1025.90 1025.72 1025.82
1014.03 1014.39 1014.94 1015.48 1016.04 1016.35 1016.61 1017.09 1017.62 1017.82 1018.31 1018.95 1019.01 1019.64 1020.04 1020.28 1020.83 1020.83 1021.13 1022.02 1022.52 1022.80 1023.39 1023.91 1024.20 1024.65 1025.26 1025.93 1025.79 1025.71 1025.59 1025.48
1013.99 1014.26 1014.83 1015.35 1015.87 1016.28 1016.49 1017.02 1017.56 1017.75 1018.61 1018.89 1019.05 1019.40 1019.55 1019.98 1020.25 1020.95 1021.35 1021.94 1022.42 1022.52 1022.78 1023.75 1024.09 1024.26 1025.03 1025.87 1026.21 1026.13 1025.56 1025.38
1013.62 1013.93 1014.36 1015.04 1015.68 1016.07 1016.61 1017.08 1017.59 1017.91 1018.73 1018.87 1019.06 1019.00 1019.15 1019.79 1020.14 1020.34 1020.78 1021.14 1021.73 1021.91 1022.34 1022.94 1023.59 1023.96 1023.85 1024.68 1025.82 1025.53 1025.15 1024.86
1013.33 1013.70 1014.15 1014.59 1015.01 1015.72 1015.97 1016.52 1016.74 1017.09 1017.69 1018.27 1018.53 1018.59 1018.81 1019.23 1019.76 1019.95 1020.14 1020.60 1021.17 1021.31 1021.77 1022.30 1022.66 1023.39 1024.07 1023.90 1023.98 1023.97 1024.54 1025.10
1013.29 1013.65 1014.05 1014.21 1014.70 1015.00 1015.63 1015.94 1016.40 1016.78 1017.39 1017.50 1017.87 1018.21 1018.31 1018.44 1019.02 1019.26 1019.76 1020.20 1020.24 1020.72 1021.20 1021.71 1021.97 1022.48 1022.75 1023.27 1023.54 1023.80 1023.73 1024.02
1013.17 1013.50 1013.64 1014.08 1014.44 1014.78 1015.24 1015.66 1016.18 1016.85 1016.86 1017.21 1017.40 1017.59 1017.98 1017.88 1018.26 1018.65 1018.97 1019.50 1019.64 1019.90 1020.37 1020.84 1021.52 1021.88 1022.10 1022.29 1022.22 1022.73 1023.03 1023.31
1012.41 1012.83 1013.17 1013.62 1014.03 1014.38 1014.73 1014.99 1015.54 1016.15 1016.56 1016.83 1017.13 1017.20 1017.14 1017.46 1017.82 1018.16 1018.43 1018.76 1018.87 1019.38 1019.97 1020.53 1021.01 1021.45 1021.38 1021.69 1021.88 1021.85 1021.90 1022.28
1011.11 1011.66 1012.28 1012.76 1013.17 1013.46 1013.97 1014.55 1015.03 1015.71 1015.73 1016.16 1016.50 1016.81 1016.73 1017.06 1017.26 1017.24 1017.46 1017.95 1018.57 1018.95 1019.36 1020.03 1020.55 1020.78 1020.62 1020.71 1020.89 1021.22 1021.28 1021.52
Thickness
5646 5640 5641 5640 5640 5641 5637 5641 5641 5645 5639 5636 5639 5638 5642 5644 5647 5653 5650 5649 5649 5644 5643 5640 5634 5630 5629 5626 5625 5624 5624 5625
5637 5636 5636 5635 5632 5636 5632 5634 5637 5643 5634 5632 5631 5633 5635 5637 5642 5645 5644 5644 5642 5639 5632 5628 5627 5623 5621 5619 5618 5618 5619 5619
5634 5632 5630 5627 5627 5623 5623 5629 5632 5636 5629 5624 5626 5628 5631 5629 5635 5638 5639 5636 5637 5631 5627 5621 5618 5615 5614 5613 5612 5613 5613 5613
5630 5629 5622 5618 5616 5618 5620 5626 5631 5628 5622 5619 5622 5624 5626 5625 5628 5628 5628 5630 5629 5628 5620 5616 5614 5612 5611 5612 5612 5611 5610 5609
5624 5619 5617 5615 5615 5615 5613 5617 5620 5620 5617 5616 5615 5619 5622 5622 5622 5619 5619 5622 5623 5619 5615 5612 5612 5609 5606 5605 5607 5607 5606 5605
5616 5614 5611 5609 5608 5607 5612 5611 5611 5611 5611 5614 5611 5614 5616 5615 5614 5613 5613 5612 5613 5612 5609 5606 5601 5601 5602 5603 5602 5601 5602 5602
5612 5609 5604 5602 5602 5600 5604 5604 5605 5608 5610 5610 5606 5606 5609 5611 5610 5609 5608 5605 5607 5603 5601 5599 5595 5594 5595 5597 5596 5597 5596 5597
5611 5606 5602 5596 5598 5598 5601 5601 5603 5608 5605 5606 5603 5603 5604 5605 5603 5604 5603 5602 5601 5600 5597 5593 5590 5591 5592 5592 5592 5591 5592 5593
5607 5605 5604 5600 5598 5600 5598 5599 5598 5600 5601 5601 5600 5600 5601 5602 5601 5600 5599 5600 5598 5596 5591 5586 5585 5585 5587 5587 5586 5588 5588 5589
5606 5605 5605 5602 5601 5602 5598 5597 5595 5597 5597 5595 5597 5597 5596 5596 5595 5596 5594 5592 5592 5592 5584 5582 5581 5583 5584 5582 5581 5583 5584 5583
5605 5605 5602 5601 5597 5597 5595 5592 5592 5595 5594 5593 5593 5592 5590 5591 5591 5590 5590 5586 5585 5580 5577 5577 5577 5578 5581 5580 5582 5580 5581 5578
5604 5603 5602 5597 5594 5593 5592 5593 5593 5598 5593 5591 5586 5585 5585 5585 5586 5584 5585 5579 5576 5575 5576 5575 5576 5578 5577 5576 5575 5575 5577 5575
5603 5600 5597 5595 5593 5592 5593 5593 5590 5591 5590 5585 5585 5581 5580 5581 5580 5583 5581 5576 5573 5573 5575 5575 5576 5575 5573 5570 5572 5573 5574 5575
5605 5602 5598 5594 5592 5591 5591 5588 5586 5588 5581 5580 5580 5579 5580 5581 5582 5577 5575 5574 5573 5575 5577 5572 5573 5574 5570 5563 5564 5564 5567 5570
5609 5607 5604 5598 5593 5592 5588 5585 5584 5584 5578 5580 5580 5580 5583 5580 5577 5581 5575 5578 5576 5577 5576 5574 5572 5572 5573 5567 5556 5563 5565 5567
5614 5611 5607 5604 5603 5596 5598 5594 5595 5593 5587 5585 5584 5586 5585 5582 5580 5583 5580 5580 5578 5578 5577 5576 5575 5571 5565 5566 5567 5568 5563 5562
5614 5611 5608 5609 5605 5605 5601 5601 5598 5593 5588 5590 5588 5587 5587 5587 5586 5587 5582 5579 5581 5579 5578 5575 5574 5570 5569 5564 5563 5560 5560 5560
5613 5610 5610 5607 5606 5605 5601 5599 5596 5590 5592 5589 5589 5589 5587 5591 5590 5586 5584 5579 5582 5580 5580 5576 5571 5568 5566 5563 5565 5559 5557 5554
5618 5614 5612 5608 5606 5604 5602 5602 5598 5594 5591 5592 5591 5590 5592 5590 5586 5584 5584 5582 5582 5579 5575 5570 5567 5563 5564 5561 5559 5559 5557 5554
5627 5623 5617 5614 5611 5610 5607 5603 5600 5594 5598 5596 5592 5590 5592 5589 5588 5589 5588 5582 5576 5572 5570 5566 5561 5559 5562 5561 5559 5555 5553 5550